Dewpoint
20 20 20 20 20 19 17 17 18 18 17 15 14 14 14 13 12 12 12 11 11 11 11 12 12 12 13 14 13 13 13 13 13 15 15 15 14 14 15 15 16 16 16 16 16 15 15 15 15 15 15 16 16 16 16 17 17 16 16 16 17 17 17 17 17 17 17 17 17
19 19 20 22 22 20 19 18 18 18 18 15 15 14 14 13 13 12 12 12 12 11 11 11 12 12 12 13 13 13 13 13 13 14 15 15 14 14 15 15 15 15 16 16 15 15 15 15 15 15 15 16 16 16 16 18 17 17 17 17 17 17 17 17 17 17 17 17 18
19 19 19 20 20 19 18 17 17 17 17 16 15 15 14 14 13 12 12 12 12 12 11 11 12 12 12 12 13 13 13 12 12 13 14 15 15 14 14 15 15 15 16 16 15 15 15 15 15 16 16 16 16 16 16 17 17 17 17 17 17 17 17 17 17 18 18 18 18
18 18 19 19 19 19 19 17 16 16 16 16 15 15 14 13 13 13 12 12 12 11 11 11 12 12 13 13 13 13 13 14 13 13 13 15 15 14 14 15 15 15 15 16 16 15 15 15 15 16 17 17 17 17 17 17 17 18 18 18 18 18 18 18 18 18 18 18 18
17 18 18 18 19 19 19 18 17 16 16 16 15 14 13 13 13 12 12 12 11 10 10 11 11 12 13 13 13 12 13 14 15 14 12 14 15 15 15 15 15 15 15 16 16 16 16 16 16 16 17 17 17 17 17 18 18 18 18 18 18 18 18 18 18 18 18 18 18
17 18 18 18 18 19 19 19 17 16 16 16 14 13 12 12 12 11 10 10 10 10 11 12 12 12 13 12 12 12 12 13 15 14 13 13 14 15 15 16 15 15 16 16 16 16 16 16 16 16 17 17 17 17 17 18 18 18 18 18 18 19 19 18 18 19 19 19 19
17 17 17 18 18 18 19 19 18 16 16 15 14 13 12 11 11 11 10 10 10 10 11 13 12 12 12 12 12 12 12 12 14 14 13 13 13 14 15 16 16 15 15 15 16 16 16 16 16 17 18 19 18 18 18 18 18 18 18 19 19 19 19 20 19 19 19 19 19
18 17 17 17 18 18 19 19 18 16 15 15 14 13 12 12 11 11 10 10 9 10 11 12 12 12 12 12 12 12 12 12 14 14 14 13 13 14 14 15 15 15 15 15 15 15 16 16 16 17 17 18 18 18 19 19 19 19 19 19 19 19 20 21 22 21 20 20 20
18 18 19 19 19 19 19 19 18 16 15 14 14 13 12 12 12 11 10 9 10 11 11 12 12 12 12 12 12 12 12 13 13 14 15 14 14 14 15 15 15 15 15 15 15 16 16 16 17 17 17 18 18 19 19 21 20 20 20 19 19 19 20 21 21 20 20 20 20
19 19 19 19 19 19 19 19 18 17 15 15 14 14 14 15 14 12 10 10 11 11 11 11 11 12 12 12 12 13 13 13 14 15 15 15 15 15 15 16 16 15 15 15 16 16 16 16 16 17 17 17 18 19 20 21 21 21 20 19 20 20 20 20 20 20 20 20 20
19 19 18 18 18 19 19 18 18 17 16 15 15 14 14 16 14 12 11 12 12 11 10 12 12 12 12 13 13 13 13 13 14 15 15 16 16 17 17 18 18 17 16 16 16 16 16 16 17 17 17 17 19 19 20 21 21 21 21 20 21 21 21 20 20 20 20 20 20
19 18 18 18 18 19 19 18 17 17 17 16 15 15 14 14 14 13 13 12 11 10 11 13 13 13 13 14 14 14 14 13 14 15 15 15 16 17 18 19 19 18 17 17 17 17 17 17 18 18 18 18 18 19 20 21 21 21 21 21 21 21 21 21 20 20 20 20 20
18 18 18 18 18 19 19 18 18 17 17 16 15 15 14 14 14 14 13 11 11 11 12 13 14 14 14 14 14 14 14 13 14 14 15 15 16 17 18 19 19 19 18 18 18 18 18 18 19 19 19 18 18 19 20 21 21 21 21 21 21 21 20 21 20 20 20 20 20
18 18 18 18 18 18 18 18 18 17 16 16 15 15 14 13 14 14 13 12 12 12 13 13 14 14 14 14 14 14 14 14 14 15 15 15 16 17 19 19 19 19 19 19 19 19 19 19 19 19 19 19 19 19 20 21 21 21 21 21 21 21 20 20 20 20 20 20 20
18 18 18 18 17 17 17 17 17 17 16 16 15 15 14 13 14 15 14 13 13 13 13 14 14 14 15 15 15 15 14 14 14 15 15 16 16 17 19 19 20 20 20 20 19 19 19 20 20 19 19 19 19 20 21 21 21 21 21 21 21 21 20 20 20 20 20 20 20
18 18 18 17 17 17 17 17 16 16 16 16 16 15 14 13 14 15 15 14 14 14 14 14 14 15 15 15 15 15 15 14 15 15 15 16 16 17 18 19 20 20 20 21 21 21 21 21 20 20 19 19 20 20 21 21 21 21 21 21 21 21 20 20 20 20 20 20 19
18 18 18 17 17 17 17 16 16 16 16 16 16 15 15 14 14 15 17 16 15 14 14 15 15 15 15 15 15 15 15 15 15 15 15 17 17 18 19 20 21 21 21 21 21 21 21 21 21 20 20 20 20 20 21 21 21 21 21 21 21 21 20 21 20 20 20 20 20
18 19 19 18 18 17 17 17 17 17 17 17 17 16 15 15 15 16 17 18 16 15 15 15 15 15 15 15 15 16 16 15 15 15 16 17 18 19 19 20 21 21 21 21 21 21 21 21 21 20 20 20 21 21 21 21 21 21 21 21 21 20 20 20 20 20 20 20 21
19 19 19 19 18 18 19 19 18 18 18 18 17 17 17 16 16 16 17 18 17 16 16 15 15 15 16 16 16 17 17 16 16 17 17 18 19 19 20 21 21 21 21 21 21 21 21 21 20 20 20 21 21 21 21 21 21 21 21 21 20 20 20 20 19 20 20 21 21
19 19 19 19 19 19 19 19 19 18 18 18 18 18 17 17 17 17 17 18 17 17 16 16 15 15 16 16 17 18 18 17 18 19 19 19 19 20 20 21 21 22 22 22 21 21 21 20 20 20 20 20 21 21 21 21 21 21 21 20 20 20 20 20 20 20 21 21 21
19 19 19 20 19 19 19 19 19 19 18 18 18 18 18 18 17 17 17 18 17 17 16 16 15 15 16 16 17 19 19 18 19 20 20 20 21 21 21 22 22 22 22 22 22 21 21 20 20 20 20 20 21 21 20 20 20 20 20 20 20 20 20 20 21 21 21 21 22
21 21 21 20 20 20 19 19 19 18 18 18 18 18 18 18 18 17 18 18 18 17 16 16 15 16 16 16 17 19 19 18 19 19 19 20 21 21 22 22 22 22 22 22 21 21 21 21 21 20 20 21 21 21 21 20 20 20 19 20 20 20 21 21 21 21 21 22 22
22 22 21 21 21 20 20 19 19 18 18 18 18 18 18 18 18 17 17 17 18 17 17 16 16 17 17 18 19 19 19 18 18 18 19 19 20 21 22 22 22 22 22 22 21 21 21 20 20 20 20 21 20 21 21 20 20 20 20 20 20 21 21 21 21 22 22 23 23
23 22 22 21 21 20 20 19 19 18 18 18 18 18 18 18 18 18 17 17 18 18 18 18 18 18 18 19 19 19 19 18 18 18 18 18 19 21 22 22 22 22 22 22 22 22 21 21 20 20 20 21 20 20 20 20 20 20 20 20 20 21 21 22 23 23 24 24 24
23 22 22 21 20 20 20 19 19 18 18 18 18 18 18 18 18 17 17 17 18 18 19 19 19 18 17 18 18 18 18 17 18 18 18 18 18 19 20 21 21 22 23 23 25 26 26 24 23 21 21 21 20 20 20 20 20 20 20 21 21 22 22 23 24 25 25 26 26
23 22 22 21 20 19 19 19 19 19 19 19 19 19 18 18 18 17 17 17 17 18 18 19 19 18 18 17 17 17 17 16 17 18 18 17 18 18 19 19 21 22 23 25 27 28 29 28 28 26 24 22 21 21 22 22 22 22 22 22 23 23 24 24 25 26 27 28 28
22 21 21 20 19 19 19 19 19 19 19 19 19 19 19 18 18 17 17 17 17 18 18 19 19 19 18 16 16 16 16 16 17 17 18 17 18 18 18 19 20 22 24 26 28 29 30 30 30 29 28 26 24 24 24 24 24 24 24 24 24 25 25 26 26 27 28 29 29
21 20 20 19 19 18 18 18 18 18 18 19 19 19 19 18 18 17 17 17 17 17 18 18 18 18 17 16 16 17 17 16 16 16 17 18 18 18 18 18 19 22 24 27 29 30 30 31 31 31 30 29 28 28 28 27 27 27 27 27 27 27 27 27 28 28 28 29 28
19 19 19 18 17 17 17 17 17 17 18 18 18 18 18 17 17 17 16 16 16 16 16 16 17 17 17 16 16 17 17 16 16 16 16 17 17 17 17 18 19 22 25 28 29 30 31 31 32 32 32 31 30 30 29 29 29 29 28 28 28 28 28 28 28 28 28 28 28
19 19 18 18 17 17 16 16 17 17 17 18 18 17 17 17 17 16 16 16 15 15 16 16 16 17 17 17 17 17 16 16 16 16 16 17 16 16 17 18 19 21 25 28 30 30 31 32 32 32 32 32 31 31 31 30 30 29 28 28 28 28 28 28 28 28 28 28 27
19 18 18 17 17 16 16 16 17 17 17 17 17 17 17 16 16 16 15 15 15 16 17 17 17 17 17 17 17 16 16 15 16 16 16 16 17 17 17 18 19 21 24 28 30 31 31 32 32 32 32 32 32 31 31 31 30 29 28 28 28 28 28 29 29 28 28 27 26
20 19 18 17 17 16 16 16 16 16 16 16 16 16 16 16 16 16 16 16 17 17 17 17 16 16 16 17 16 16 15 15 16 16 16 16 16 16 17 17 18 21 24 28 30 31 32 32 32 32 32 32 32 32 31 31 31 30 29 28 29 29 29 29 29 28 28 27 26
21 19 18 17 17 16 16 16 16 16 16 16 16 16 16 16 16 17 17 17 17 17 17 17 16 16 16 16 16 16 15 15 15 16 17 17 16 16 16 17 18 21 25 28 30 31 32 32 32 32 32 32 32 31 31 30 30 30 29 30 30 30 30 30 29 28 27 26 26
22 19 18 17 17 17 16 16 16 16 15 15 15 15 16 17 17 17 18 18 18 17 17 17 16 16 16 16 15 15 15 16 16 16 16 16 16 16 16 16 17 21 26 28 30 31 32 32 32 32 32 31 31 31 30 29 29 29 29 29 30 30 29 29 28 27 27 26 25
23 20 19 17 17 17 16 16 16 15 15 15 15 15 16 17 17 18 18 18 18 18 17 17 17 16 16 15 15 15 15 16 15 15 15 16 16 16 16 16 17 21 26 28 30 31 32 32 32 32 31 31 31 30 29 28 28 28 28 28 28 28 28 28 26 25 25 24 24
23 20 19 18 17 16 16 16 15 15 15 15 15 16 16 17 17 18 18 19 19 18 17 17 17 16 16 15 15 15 15 15 15 15 15 16 16 16 16 16 17 20 25 28 30 31 32 32 32 32 31 30 30 29 29 28 28 28 28 28 28 28 27 26 25 24 24 24 23
23 21 19 18 17 16 16 16 15 15 15 15 15 16 16 17 17 18 18 19 19 18 18 17 17 16 15 15 15 15 15 15 15 15 15 16 16 16 15 16 16 19 24 28 30 31 32 32 32 32 31 29 29 28 28 28 28 27 27 27 27 27 27 26 25 25 24 24 24
23 21 20 19 18 17 17 16 16 15 15 15 15 16 16 17 17 17 18 19 19 18 17 17 16 16 15 15 15 15 15 15 15 15 15 16 16 16 15 15 16 19 23 27 30 31 32 32 32 32 30 28 28 28 27 27 27 26 26 26 26 27 27 26 26 25 25 25 26
24 23 21 20 19 18 17 16 16 16 16 16 16 16 16 16 17 17 18 19 19 18 18 17 17 16 16 16 15 15 15 15 15 15 15 15 16 17 17 16 16 18 21 26 29 31 31 32 32 32 31 29 28 27 27 26 26 26 26 26 26 26 26 26 25 25 25 25 28
24 23 22 20 19 18 17 16 16 16 16 16 16 16 16 16 17 18 19 19 19 18 18 17 17 17 17 17 16 15 15 15 15 15 15 15 16 19 20 17 17 18 21 25 28 30 31 32 32 31 31 29 28 27 27 26 26 25 25 25 25 25 25 25 25 25 25 24 27
23 22 21 20 19 19 18 17 16 17 17 17 17 16 17 17 18 18 18 18 18 18 18 17 17 17 17 18 17 15 15 14 15 15 15 16 17 19 21 19 18 18 19 23 27 29 30 31 31 31 31 29 28 27 26 26 25 25 25 25 24 24 24 25 25 25 24 24 24